FW1310 Weather Reports


time (UTC)temp
F
wind
direction
speed
knots
gust
knots
rain 1hr
in
rain 24hr
in
rain mn
in
humidity
%
barometer
mb
20260505091004 70 268 4.3 11.3 0.00 0.00 0.00 87 993.1
20260505090504 70 321 2.6 7.0 0.00 0.00 0.00 87 993.1
20260505085504 70 18 4.3 7.8 0.00 0.00 0.00 87 993.1
20260505084504 70 18 4.3 11.3 0.00 0.00 0.00 87 993.4
20260505084004 70 333 2.6 7.0 0.00 0.00 0.00 87 993.2
20260505083504 70 296 2.6 7.0 0.00 0.00 0.00 87 993.2
20260505083004 70 324 4.3 7.0 0.00 0.00 0.00 86 993.2
20260505082504 70 297 5.2 10.4 0.00 0.00 0.00 86 993.3
20260505082004 70 225 2.6 7.0 0.00 0.00 0.00 86 993.3
20260505081504 70 294 2.6 8.7 0.00 0.00 0.00 86 993.3
20260505081004 70 261 3.5 7.8 0.00 0.00 0.00 86 993.3
20260505080504 70 324 2.6 8.7 0.00 0.00 0.00 86 993.4
20260505080004 70 287 4.3 12.2 0.00 0.00 0.00 86 993.4
20260505075504 70 322 2.6 12.2 0.00 0.00 0.00 86 993.5
20260505074504 70 322 2.6 8.7 0.00 0.00 0.00 86 993.5
20260505073504 70 344 2.6 7.8 0.00 0.00 0.00 86 993.8
20260505072504 70 312 3.5 7.8 0.00 0.00 0.00 86 993.9
20260505072004 70 315 4.3 8.7 0.00 0.00 0.00 86 994.1
20260505071504 70 344 4.3 7.8 0.00 0.00 0.00 86 994.1
20260505071004 70 281 1.7 10.4 0.00 0.00 0.00 86 994.3
20260505070504 70 331 2.6 10.4 0.00 0.00 0.00 86 994.2
20260505070004 70 63 2.6 10.4 0.00 0.00 0.00 86 994.3
20260505065504 70 357 2.6 6.1 0.00 0.00 0.00 86 994.4
20260505065004 70 220 5.2 12.2 0.00 0.00 0.00 86 994.5
20260505063004 70 296 2.6 7.0 0.00 0.00 0.00 85 994.4
20260505062504 71 264 4.3 7.0 0.00 0.00 0.00 85 994.6
20260505062005 71 286 2.6 7.0 0.00 0.00 0.00 85 994.7
20260505061505 71 252 4.3 8.7 0.00 0.00 0.00 85 994.6
20260505061004 71 267 1.7 4.3 0.00 0.00 0.00 85 994.7
20260505060504 71 318 4.3 8.7 0.00 0.00 0.00 85 994.7
20260505060005 71 280 1.7 7.8 0.00 0.00 0.00 85 994.7
20260505055505 71 264 4.3 11.3 0.00 0.00 0.00 85 994.6
20260505055005 71 263 3.5 7.8 0.00 0.00 0.00 84 994.5
20260505054504 71 315 4.3 7.0 0.00 0.00 0.00 84 994.6
20260505054004 71 298 6.1 11.3 0.00 0.00 0.00 84 994.6
20260505053504 71 273 3.5 7.8 0.00 0.00 0.00 84 994.7
20260505053005 71 341 4.3 11.3 0.00 0.00 0.00 84 994.6
20260505051504 71 268 4.3 11.3 0.00 0.00 0.00 84 994.6
20260505050504 71 311 4.3 7.8 0.00 0.00 0.00 84 994.4
20260505041504 72 320 2.6 5.2 0.00 0.00 0.00 82 994.6
20260505040504 72 284 1.7 5.2 0.00 0.00 0.00 82 994.5
20260505040005 72 324 1.7 5.2 0.00 0.00 0.00 81 994.5
20260505035004 72 285 1.7 5.2 0.00 0.00 0.00 81 994.5
20260505033504 73 300 2.6 7.8 0.00 0.00 0.00 80 994.4
20260505031004 73 337 2.6 5.2 0.00 0.00 0.00 78 994.4
20260505030504 73 298 2.6 8.7 0.00 0.00 0.00 77 994.6
20260505030004 74 237 2.6 7.8 0.00 0.00 0.00 77 994.5
20260505025504 74 274 2.6 7.8 0.00 0.00 0.00 76 994.5
20260505025005 74 270 3.5 6.1 0.00 0.00 0.00 75 994.7
20260505024504 74 343 1.7 5.2 0.00 0.00 0.00 74 994.5
20260505024005 74 217 1.7 4.3 0.00 0.00 0.00 74 994.6
20260505023504 74 271 1.7 4.3 0.00 0.00 0.00 73 994.6
20260505023004 74 266 0.9 2.6 0.00 0.00 0.00 73 994.6
20260505022504 74 283 0.9 5.2 0.00 0.00 0.00 72 994.6
20260505022005 75 280 0.9 2.6 0.00 0.00 0.00 72 994.4
20260505021504 75 292 1.7 4.3 0.00 0.00 0.00 72 994.4
20260505021005 75 290 2.6 6.1 0.00 0.00 0.00 71 994.3
20260505020504 75 103 2.6 6.1 0.00 0.00 0.00 71 994.2
20260505020004 75 198 4.3 8.7 0.00 0.00 0.00 71 994.3
20260505015504 75 285 1.7 7.8 0.00 0.00 0.00 70 994.2
20260505015004 75 0 1.7 6.1 0.00 0.00 0.00 70 994.3
20260505014504 75 302 1.7 4.3 0.00 0.00 0.00 69 994.4
20260505014005 75 274 1.7 4.3 0.00 0.00 0.00 69 994.4
20260505013504 76 289 1.7 6.1 0.00 0.00 0.00 67 994.4
20260505013004 76 345 2.6 7.0 0.00 0.00 0.00 67 994.5
20260505012504 76 260 2.6 7.8 0.00 0.00 0.00 67 994.3
20260505011504 76 292 2.6 6.1 0.00 0.00 0.00 66 994.3
20260505011004 76 309 4.3 8.7 0.00 0.00 0.00 65 994.3
20260505010505 77 224 2.6 10.4 0.00 0.00 0.00 65 994.3
20260505010005 77 19 5.2 7.8 0.00 0.00 0.00 64 994.4
20260505005504 77 222 2.6 7.8 0.00 0.00 0.00 64 994.3
20260505005005 77 268 1.7 5.2 0.00 0.00 0.00 64 994.3
20260505004504 77 301 2.6 7.8 0.00 0.00 0.00 63 994.3
20260505004004 78 246 3.5 8.7 0.00 0.00 0.00 63 994.3
20260505003505 78 299 2.6 7.8 0.00 0.00 0.00 63 994.3
20260505003004 78 297 4.3 8.7 0.00 0.00 0.00 62 994.4
20260505002504 79 311 2.6 7.0 0.00 0.00 0.00 62 994.3
20260505002004 79 336 2.6 8.7 0.00 0.00 0.00 61 994.2
20260505001504 79 340 1.7 8.7 0.00 0.00 0.00 61 994.2
20260505001004 79 294 3.5 8.7 0.00 0.00 0.00 60 994.2
20260505000505 80 353 6.1 14.8 0.00 0.00 0.00 60 994.0
20260505000004 80 334 4.3 13.0 0.00 0.00 0.00 60 994.1
20260504235505 80 346 4.3 12.2 0.00 0.00 0.00 60 994.3
20260504234504 81 331 3.5 7.0 0.00 0.00 0.00 59 994.5
20260504234004 81 331 2.6 7.0 0.00 0.00 0.00 58 994.3
20260504233504 81 165 4.3 11.3 0.00 0.00 0.00 59 994.3
20260504233005 81 276 4.3 7.0 0.00 0.00 0.00 58 994.4
20260504232504 81 296 2.6 7.0 0.00 0.00 0.00 58 994.5
20260504232004 81 303 4.3 7.0 0.00 0.00 0.00 58 994.6
20260504231505 81 329 2.6 7.8 0.00 0.00 0.00 58 994.5
20260504231004 81 340 4.3 7.8 0.00 0.00 0.00 57 994.5
20260504230504 81 278 4.3 8.7 0.00 0.00 0.00 57 994.7
20260504230005 82 118 2.6 12.2 0.00 0.00 0.00 56 994.7
20260504225504 83 308 4.3 12.2 0.00 0.00 0.00 55 994.7
20260504225005 83 259 2.6 8.7 0.00 0.00 0.00 55 994.7
20260504224005 83 300 2.6 7.8 0.00 0.00 0.00 56 994.9
20260504223505 83 228 4.3 8.7 0.00 0.00 0.00 55 994.9
20260504223004 83 282 2.6 7.0 0.00 0.00 0.00 55 994.9
20260504222505 83 212 3.5 7.8 0.00 0.00 0.00 55 994.8
20260504222005 83 304 4.3 8.7 0.00 0.00 0.00 56 995.0
20260504221504 83 303 2.6 8.7 0.00 0.00 0.00 55 995.2
20260504221005 83 347 2.6 12.2 0.00 0.00 0.00 55 995.1
20260504220504 83 302 4.3 10.4 0.00 0.00 0.00 56 995.0
20260504215504 83 279 3.5 10.4 0.00 0.00 0.00 55 995.3
20260504215004 83 275 4.3 10.4 0.00 0.00 0.00 55 995.2
20260504214505 84 321 4.3 7.0 0.00 0.00 0.00 55 995.1
20260504214004 83 321 2.6 7.8 0.00 0.00 0.00 55 995.2
20260504213004 83 16 2.6 11.3 0.00 0.00 0.00 55 995.2
20260504212504 83 10 2.6 7.8 0.00 0.00 0.00 55 995.4
20260504212004 84 288 4.3 8.7 0.00 0.00 0.00 54 995.6
20260504211504 83 264 1.7 7.0 0.00 0.00 0.00 55 995.8
20260504211004 83 346 2.6 7.8 0.00 0.00 0.00 55 995.9
20260504210504 83 315 4.3 7.0 0.00 0.00 0.00 56 996.0
20260504205504 82 346 2.6 8.7 0.00 0.00 0.00 56 996.2
20260504205004 82 87 4.3 12.2 0.00 0.00 0.00 57 996.3
20260504204504 82 288 2.6 8.7 0.00 0.00 0.00 57 996.3
20260504203504 82 261 5.2 7.8 0.00 0.00 0.00 56 996.3
20260504203004 82 347 1.7 7.8 0.00 0.00 0.00 58 996.4
20260504202504 81 267 4.3 7.8 0.00 0.00 0.00 56 996.6
20260504202004 81 267 4.3 7.8 0.00 0.00 0.00 57 996.6
20260504201505 82 249 5.2 13.0 0.00 0.00 0.00 56 996.7
20260504201004 82 300 3.5 13.0 0.00 0.00 0.00 57 996.8
20260504200004 81 290 2.6 7.8 0.00 0.00 0.00 58 997.0
20260504195504 81 287 4.3 7.8 0.00 0.00 0.00 57 997.0
20260504195004 81 2 4.3 11.3 0.00 0.00 0.00 56 997.3
20260504194504 81 269 4.3 10.4 0.00 0.00 0.00 56 997.3
20260504194004 81 306 2.6 8.7 0.00 0.00 0.00 58 997.6
20260504193504 80 295 2.6 8.7 0.00 0.00 0.00 58 997.6
20260504192504 80 335 2.6 7.0 0.00 0.00 0.00 59 997.7
20260504191504 80 326 5.2 11.3 0.00 0.00 0.00 60 997.8
20260504191004 80 275 4.3 10.4 0.00 0.00 0.00 59 997.9
20260504190004 79 299 2.6 7.8 0.00 0.00 0.00 60 998.1
20260504185504 78 286 2.6 11.3 0.00 0.00 0.00 61 998.2
20260504185005 78 309 2.6 8.7 0.00 0.00 0.00 61 998.2
20260504184505 79 324 2.6 7.0 0.00 0.00 0.00 60 998.0
20260504184004 79 322 4.3 6.1 0.00 0.00 0.00 60 998.1
20260504183504 79 304 2.6 7.8 0.00 0.00 0.00 61 998.1
20260504183004 78 283 2.6 8.7 0.00 0.00 0.00 61 998.3
20260504182504 77 272 4.3 14.8 0.00 0.00 0.00 62 998.6
20260504181505 78 306 2.6 7.8 0.00 0.00 0.00 62 998.6
20260504181005 77 313 4.3 8.7 0.00 0.00 0.00 63 998.7
20260504180504 77 247 2.6 7.0 0.00 0.00 0.00 63 998.7
20260504180004 76 284 4.3 11.3 0.00 0.00 0.00 64 998.8
20260504175504 76 253 1.7 7.8 0.00 0.00 0.00 64 999.0
20260504174004 76 312 1.7 11.3 0.00 0.00 0.00 63 999.0
20260504173504 75 272 1.7 5.2 0.00 0.00 0.00 64 999.1
20260504173005 75 301 1.7 10.4 0.00 0.00 0.00 66 999.3
20260504172504 75 344 4.3 10.4 0.00 0.00 0.00 65 999.4
20260504172004 74 4 2.6 7.8 0.00 0.00 0.00 67 999.5
20260504171505 73 164 3.5 12.2 0.00 0.00 0.00 68 999.5
20260504171005 73 65 2.6 12.2 0.00 0.00 0.00 68 999.8
20260504170504 73 324 5.2 11.3 0.00 0.00 0.00 68 999.8
20260504151004 71 328 5.2 11.3 0.00 0.00 0.00 69 1000.2
20260504150504 71 255 2.6 8.7 0.00 0.00 0.00 69 1000.2
20260504141004 67 289 2.6 8.7 0.00 0.00 0.00 74 1000.2
20260504140504 67 292 2.6 12.2 0.00 0.00 0.00 74 1000.2
20260504130504 62 266 1.7 2.6 0.00 0.00 0.00 81 1000.3